#timestamp,LO_Frequency,Hit 
1505545215.0,286047008.5,N
1505545215.9,286047008.5,N
1505545235.8,286047012.3,N
1505545255.6,286047009.6,N
1505545275.4,286047007.2,N
1505545295.3,286047009.1,N
1505545315.1,286047008.0,N
1505545335.8,286047007.6,N
1505545355.7,286047001.5,N
1505545375.5,286047002.8,N
1505545395.3,286046998.8,N
1505545415.2,286047001.7,N
1505545435.9,286047003.7,N
1505545455.7,286047000.9,N
1505545475.6,286046998.7,N
1505545495.4,286046999.2,N
1505545515.2,286046998.3,N
1505545535.0,286047002.8,N
1505545535.9,286047002.8,N
1505545555.8,286047004.3,N
1505545575.6,286047002.9,N
1505545595.4,286047008.0,N
1505545615.3,286047008.2,N
1505545635.1,286047007.7,N
1505545655.8,286047008.7,N
1505545675.7,286047005.6,N
1505545695.5,286047000.7,N
1505545715.3,286046999.7,N
1505545735.2,286047000.1,N
1505545755.9,286047000.2,N
1505545775.7,286047000.5,N
1505545795.6,286047000.6,N
1505545815.4,286047001.0,N
1505545835.2,286047002.6,N
1505545855.0,286047004.3,N
1505545856.0,286047004.3,N
1505545875.8,286047002.0,N
1505545895.6,286047001.8,N
1505545915.4,286047001.6,N
1505545935.3,286046999.7,N
1505545955.1,286047002.3,N
1505545975.8,286047001.6,N
1505545995.7,286047003.1,N
1505546015.5,286047002.1,N
1505546035.3,286046998.2,N
1505546055.2,286046998.9,N
1505546075.9,286046996.7,N
1505546095.7,286046998.3,N
1505546115.6,286047005.4,N
1505546135.4,286047002.1,N
1505546155.2,286047000.9,N
1505546175.1,286047002.8,N
1505546176.0,286047002.8,N
1505546195.8,286047005.1,N
1505546215.6,286047002.0,N
1505546235.4,286047002.7,N
1505546255.3,286047007.5,P
1505546275.1,286047005.3,N
1505546295.9,286047005.3,N
1505546315.7,286047005.2,N
1505546335.5,286047004.4,N
1505546355.4,286047007.0,P
1505546375.2,286047001.2,N
1505546395.0,286046995.5,N
1505546395.9,286046995.5,N
1505546415.7,286046992.4,N
1505546435.6,286046992.7,N
1505546455.4,286046996.3,N
1505546475.2,286047002.4,N
1505546495.1,286047007.1,N
1505546496.0,286047007.1,N
1505546515.8,286047005.0,N
1505546535.6,286046999.1,N
1505546555.5,286046991.8,N
1505546575.3,286046994.3,N
1505546595.1,286046995.2,N
1505546615.9,286046992.1,N
1505546635.7,286046994.4,N
1505546655.5,286046994.3,N
1505546675.4,286046995.7,N
1505546695.2,286046995.7,N
1505546715.0,286046999.2,N
1505546715.9,286046999.2,N
1505546735.7,286046997.3,N
1505546755.6,286046999.0,N
1505546775.4,286047004.0,N
1505546795.2,286047001.8,N
1505546815.1,286047001.9,N
1505546816.0,286047001.9,N
1505546835.8,286046999.7,N
1505546855.6,286047006.8,N
1505546875.5,286047004.8,N
1505546895.3,286047004.7,N
1505546915.1,286047007.3,N
1505546935.9,286047003.4,N
1505546955.7,286046998.2,N
1505546975.5,286046998.3,N
1505546995.4,286046997.9,N
1505547015.2,286046996.9,N
1505547035.0,286046995.7,N
1505547035.9,286046995.7,N
1505547055.8,286046995.4,N
1505547075.6,286046995.4,N
1505547095.4,286046996.0,N
1505547115.3,286046996.4,N
1505547135.1,286046998.9,N
1505547136.0,286046998.9,N
1505547155.8,286046998.2,N
1505547175.7,286046998.9,N
1505547195.5,286046996.9,N
1505547215.3,286046996.4,N
1505547235.1,286046992.4,N
1505547255.9,286046994.2,N
1505547275.7,286046995.5,N
1505547295.5,286046995.4,N
1505547315.4,286046995.0,N
1505547335.2,286046994.1,N
1505547355.0,286046993.9,N
1505547355.9,286046993.9,N
1505547375.8,286046994.1,N
1505547395.6,286046998.0,N
1505547415.4,286046998.8,N
1505547435.3,286046997.7,N
1505547455.1,286046997.1,N
1505547456.0,286046997.1,N
1505547475.8,286046998.1,N
1505547495.7,286046998.7,N
1505547515.5,286047000.0,N
1505547535.3,286047002.0,N
1505547555.1,286046998.1,N
1505547575.9,286047000.6,N
1505547595.7,286047002.8,N
1505547615.5,286046994.9,N
1505547635.4,286046994.1,N
1505547655.2,286046993.3,N
1505547675.0,286046994.3,N
1505547675.9,286046994.3,N
1505547695.8,286046992.5,N
1505547715.6,286046992.6,N
1505547735.4,286046994.4,N
1505547755.3,286046997.1,N
1505547775.1,286046997.9,N
1505547776.0,286046997.9,N
1505547795.8,286047001.1,N
1505547815.7,286046998.7,N
1505547835.5,286046998.6,N
1505547855.3,286046997.7,N
1505547875.2,286046997.4,N
1505547895.9,286046997.4,N
1505547915.7,286046995.9,N
1505547935.5,286046999.5,N
1505547955.4,286046996.6,N
1505547975.2,286047001.3,N
1505547995.0,286046999.7,N
1505547995.9,286046999.7,N
1505548015.8,286046999.0,N
1505548035.6,286046995.8,N
1505548055.4,286046994.0,N
1505548075.3,286046993.8,N
1505548095.1,286046995.5,N
1505548115.8,286046996.8,N
1505548135.7,286047000.3,N
1505548155.5,286047000.9,N
1505548175.3,286047002.6,N
1505548195.2,286047000.2,N
1505548215.9,286046997.4,N
1505548235.7,286046999.3,N
1505548255.5,286046995.7,N
1505548275.4,286046993.5,N
1505548295.2,286046989.2,P
1505548315.1,286046988.5,N
1505548316.0,286046988.5,N
1505548335.8,286046990.4,N
1505548355.6,286046992.3,N
1505548375.4,286046996.5,N
1505548395.3,286047001.2,N
1505548415.1,286046995.3,N
1505548435.8,286046995.4,N
1505548455.7,286046997.1,N
1505548475.5,286046998.6,N
1505548495.3,286047001.0,N
1505548515.2,286047002.3,N
1505548535.9,286047001.1,N
1505548555.7,286047000.3,N
1505548575.6,286046996.7,N
1505548595.4,286046999.9,N
1505548615.2,286047000.8,N
1505548635.1,286047000.5,N
1505548636.0,286047000.5,N
1505548655.8,286046997.2,N
1505548675.6,286047001.6,N
1505548695.4,286047003.1,N
1505548715.3,286047003.7,N
1505548735.1,286047000.0,N
1505548755.8,286047001.8,N
1505548775.7,286046999.7,N
1505548795.5,286047003.1,N
